sat.trackr.live / text

‹ back to catalog

STARLINK-2642

NORAD 48437 · 2021-040K

PAYLOAD ACTIVE UNKNOWN

§ Identity

Operator
Country
US
Launch date
2021-05-09
Launch site
AFETR
Launch vehicle
Mass (kg)
RCS (m²)

Purposes: comms

External: N2YO · Heavens-Above · Gunter

§ Orbital elements

Epoch: 2026-05-24T22:18:37.664640Z

Period
94.01 min
Inclination
53.1588°
Eccentricity
0.0001249
Mean motion
15.31702425 rev/d
Perigee alt
469.9 km
Apogee alt
471.6 km
Semi-major
6,848.9 km
B*
-3.3018e-6
RAAN
196.4513°
Arg perigee
86.2819°
Mean anomaly
273.8325°
Rev number
27,817

§ Raw data

STARLINK-26421 48437U 21040K   26144.92960260 -.00000468  00000+0 -33018-5 0  99932 48437  53.1588 196.4513 0001249  86.2819 273.8325 15.31702425278172

JSON: /api/v1/satellites/48437 · /tle

For live sub-satellite position, see the globe view (requires WebGL).

§ Visibility from observer

Set your observer location to see the next 7 days of passes ≥ 10°. The values pass through the URL so the page stays shareable.

No JS? Fill the form by hand. The geolocation button needs JavaScript.